Pompano Beach, FL

1:34 AM EST on January 23, 2018 (GMT -0500)
Pompano Beach

Weather History for KPMP - August, 2014

Change the Weather History Date:

Saturday, August 16, 2014

  Actual Average Record
Temperature  
Mean Temperature 84 °F -  
Max Temperature 93 °F 92 °F 96 °F (1993)
Min Temperature 77 °F 75 °F 68 °F (1976)
Cooling Degree Days 19    
Growing Degree Days 34 (Base 50)    
Moisture  
Dew Point 74 °F    
Average Humidity 74    
Maximum Humidity 90    
Minimum Humidity 58    
Precipitation  
Precipitation 0.00 in - - ()
Sea Level Pressure  
Sea Level Pressure 30.08 in    
Wind  
Wind Speed 6 mph (SSE)    
Max Wind Speed 21 mph    
Max Gust Speed 25 mph    
Visibility 9 miles    
Events Rain , Thunderstorm    
Averages and records for this station are not official NWS values.
T = Trace of Precipitation, MM = Missing Value Source: NWS Daily Summary

Daily Weather History Graph

Daily Weather History Graph

Search for Another Location

Airport or City:

Trip Planner

Search our weather history database for the weather conditions in past years. The results will help you decide how hot, cold, wet, or windy it might be!

Date:

Astronomy

Aug. 16, 2014 Rise Set
Actual Time 6:53 AM EDT 7:55 PM EDT
Civil Twilight 6:29 AM EDT 8:19 PM EDT
Nautical Twilight 6:00 AM EDT 8:48 PM EDT
Astronomical Twilight 5:31 AM EDT 9:17 PM EDT
Moon No Moon Rise 12:56 PM EDT (8/16)
Length of Visible Light 13h 50m
Length of Day
13h 02m
Waning Gibbous, 59% of the Moon is Illuminated
Aug 16
Waning Gibbous
Aug 17
Last Quarter
Aug 25
New
Sep 2
First Quarter
Sep 8
Full

Hourly Weather History & Observations

Time (EDT) Temp. Heat Index Dew Point Humidity Pressure Visibility Wind Dir Wind Speed Gust Speed Precip Events Conditions
1:53 AM 79.0 °F - 73.9 °F 84% 30.02 in 9.0 mi South 3.5 mph - N/A   Unknown
2:53 AM 78.1 °F - 75.0 °F 90% 30.04 in 8.0 mi North 4.6 mph - N/A   Unknown
3:53 AM 77.0 °F - 73.9 °F 90% 30.04 in 7.0 mi NNW 3.5 mph - N/A   Unknown
4:53 AM 77.0 °F - 73.9 °F 90% 30.04 in 8.0 mi NNW 4.6 mph - N/A   Unknown
5:53 AM 77.0 °F - 73.9 °F 90% 30.05 in 7.0 mi NNW 3.5 mph - N/A   Unknown
6:53 AM 77.0 °F - 73.9 °F 90% 30.05 in 7.0 mi Calm Calm - N/A   Unknown
7:53 AM 78.1 °F - 75.0 °F 90% 30.08 in 9.0 mi Calm Calm - N/A   Mostly Cloudy
8:53 AM 81.0 °F 87.3 °F 75.9 °F 85% 30.09 in 10.0 mi Calm Calm - N/A   Scattered Clouds
9:53 AM 87.1 °F 99.8 °F 78.1 °F 74% 30.10 in 10.0 mi SE 6.9 mph - N/A   Partly Cloudy
10:53 AM 89.1 °F 101.4 °F 77.0 °F 67% 30.12 in 10.0 mi SSE 6.9 mph - N/A   Scattered Clouds
11:53 AM 90.0 °F 102.5 °F 77.0 °F 65% 30.12 in 10.0 mi SSE 8.1 mph - N/A   Unknown
12:53 PM 90.0 °F 100.2 °F 75.0 °F 61% 30.09 in 10.0 mi SSE 11.5 mph - N/A   Unknown
1:53 PM 91.9 °F 103.2 °F 75.0 °F 58% 30.09 in 9.0 mi SE 12.7 mph - N/A   Unknown
2:53 PM 91.9 °F 103.9 °F 75.9 °F 59% 30.07 in 9.0 mi SE 16.1 mph - N/A   Unknown
3:09 PM 91.9 °F 103.9 °F 75.9 °F 59% 30.07 in 9.0 mi SE 17.3 mph - N/A Thunderstorm Unknown
3:36 PM 89.1 °F 100.2 °F 75.9 °F 65% 30.06 in 8.0 mi South 13.8 mph - N/A Thunderstorm Thunderstorm
3:53 PM 87.1 °F 93.6 °F 72.0 °F 61% 30.08 in 10.0 mi South 10.4 mph 20.7 mph N/A Thunderstorm Unknown
4:11 PM 84.0 °F 90.2 °F 73.0 °F 69% 30.07 in 10.0 mi South 10.4 mph - 0.00 in Rain , Thunderstorm Light Thunderstorms and Rain
4:26 PM 82.9 °F 87.0 °F 70.0 °F 65% 30.06 in 10.0 mi SSW 20.7 mph 25.3 mph 0.00 in Rain , Thunderstorm Light Rain
4:53 PM 84.0 °F 87.8 °F 69.1 °F 61% 30.08 in 10.0 mi South 8.1 mph - 0.00 in   Mostly Cloudy
5:19 PM 84.0 °F 89.0 °F 71.1 °F 65% 30.11 in 10.0 mi NW 15.0 mph - N/A Thunderstorm Unknown
5:26 PM 84.0 °F 89.6 °F 72.0 °F 67% 30.11 in 10.0 mi NW 15.0 mph - N/A Thunderstorm Unknown
5:51 PM 82.4 °F 86.3 °F 69.8 °F 66% 30.11 in 10.0 mi WNW 6.9 mph - N/A   Unknown
5:53 PM 82.9 °F 87.0 °F 70.0 °F 65% 30.11 in 10.0 mi WNW 9.2 mph - N/A   Unknown
6:53 PM 80.1 °F 84.2 °F 73.0 °F 79% 30.12 in 10.0 mi North 4.6 mph - 0.00 in   Unknown
7:53 PM 81.0 °F 85.8 °F 73.0 °F 77% 30.11 in 10.0 mi ENE 8.1 mph - 0.00 in   Unknown
8:53 PM 82.0 °F 87.4 °F 73.0 °F 74% 30.10 in 10.0 mi ENE 4.6 mph - N/A   Unknown
9:53 PM 82.0 °F 87.9 °F 73.9 °F 76% 30.11 in 10.0 mi Calm Calm - N/A   Unknown
10:53 PM 80.1 °F 85.1 °F 75.0 °F 85% 30.11 in 9.0 mi Calm Calm - N/A   Unknown
11:53 PM 80.1 °F 85.1 °F 75.0 °F 85% 30.11 in 9.0 mi Calm Calm - N/A   Unknown